This demonstration page uses our WeatherBlox Daily Observations layout. Learn more.

Left ArrowRight Arrow

38.83388, -104.82136

Hourly Observations for March 26, 2021

Temp ( °F °C ) Dew Point ( °F °C ) Humidity (%) Winds ( mph kmh ) Pressure ( in mb ) Visibility ( mi km ) Precip ( " mm )
12:58 am 00:58 Mostly Cloudy 37 2.8 16 -8.9 42 42 WNW 13 20 29.58 1002 10 16 0.00 0.00
1:58 am 01:58 Mostly Cloudy 33 0.8 21 -5.9 61 61 Calm 29.35 994 10 16 0.00 0.00
2:58 am 02:58 Mostly Cloudy 37 2.5 18 -7.9 47 47 NW 7 11 29.32 993 10 16 0.00 0.00
3:58 am 03:58 Cloudy 36 2.1 17 -8.5 46 46 Calm 29.33 993 10 16 0.00 0.00
4:58 am 04:58 Mostly Cloudy 34 0.9 20 -6.7 57 57 NNW 6 9 29.36 994 10 16 0.00 0.00
5:58 am 05:58 Cloudy 32 0.2 21 -6.1 63 63 NW 3 6 29.39 995 10 16 0.00 0.00
6:58 am 06:58 Mostly Cloudy 32 0.2 20 -6.8 60 60 Calm 29.41 996 10 16 0.00 0.00
7:58 am 07:58 Mostly Sunny 35 1.6 19 -7 53 53 N 5 7 29.41 996 10 16 0.00 0.00
8:58 am 08:58 Sunny 38 3.1 20 -6.4 50 50 SE 12 19 29.43 997 10 16 0.00 0.00
9:58 am 09:58 Mostly Sunny 40 4.3 21 -6.3 46 46 ESE 8 13 29.44 997 10 16 0.00 0.00
10:58 am 10:58 Cloudy 39 4 18 -8 42 42 ENE 6 9 29.45 997 10 16 0.00 0.00
11:02 am 11:02 Cloudy with Light Rain 37 3 18 -8 45 45 Calm 29.47 998 5 8 0.00 0.00
11:04 am 11:04 Cloudy with Light Rain/Snow 37 3 19 -7 48 48 NNW 6 9 29.47 998 4 6 0.00 0.00
11:05 am 11:05 Cloudy with Light Rain 37 3 19 -7 48 48 NNW 6 9 29.47 998 4 6 0.00 0.00
11:06 am 11:06 Cloudy with Light Rain/Snow 37 3 19 -7 48 48 NW 7 11 29.47 998 4 6 0.00 0.00
11:51 am 11:51 Cloudy with Light Showers 37 3 19 -7 48 48 WNW 3 6 29.47 998 10 16 0.00 0.00
11:52 am 11:52 Cloudy 37 3 19 -7 48 48 WNW 5 7 29.47 998 10 16 0.00 0.00
11:58 am 11:58 Cloudy 37 2.8 20 -6.9 49 49 WNW 7 11 29.47 998 10 16 0.00 0.00
12:16 pm 12:16 Cloudy with Light Showers 39 4 18 -8 42 42 S 5 7 29.45 997 10 16 0.00 0.00
12:23 pm 12:23 Cloudy with Light Rain/Snow 37 3 19 -7 48 48 SSW 6 9 29.47 998 10 16 0.00 0.00
12:37 pm 12:37 Mostly Cloudy with Light Showers 37 3 19 -7 48 48 Calm 29.47 998 10 16 0.00 0.00
12:42 pm 12:42 Mostly Cloudy with Light Showers 39 4 19 -7 45 45 SSE 5 7 29.44 997 10 16 0.00 0.00
12:44 pm 12:44 Mostly Cloudy 39 4 19 -7 45 45 SE 5 7 29.44 997 10 16 0.00 0.00
12:58 pm 12:58 Mostly Cloudy 40 4.4 19 -7.1 43 43 SE 3 6 29.45 997 10 16 0.00 0.00
1:58 pm 13:58 Mostly Cloudy 42 5.3 19 -7.5 40 40 SE 7 11 29.45 997 10 16 0.00 0.00
2:58 pm 14:58 Mostly Cloudy 41 5.2 19 -7.1 41 41 SE 13 20 29.44 997 10 16 0.00 0.00
3:58 pm 15:58 Mostly Cloudy 39 3.7 23 -5.1 53 53 SE 7 11 29.47 998 10 16 0.00 0.00
4:57 pm 16:57 Mostly Cloudy with Light Showers 37 3 25 -4 60 60 NNW 7 11 29.52 1000 5 8 0.00 0.00
4:58 pm 16:58 Mostly Cloudy with Light Showers 37 3 25 -4 60 60 NNW 8 13 29.52 1000 5 8 0.00 0.00
4:59 pm 16:59 Mostly Cloudy with Light Rain/Snow 37 3 25 -4 60 60 NW 8 13 29.52 1000 5 8 0.00 0.00
5:00 pm 17:00 Mostly Cloudy with Light Rain 37 3 25 -4 60 60 NW 7 11 29.52 1000 5 8 0.00 0.00
5:01 pm 17:01 Mostly Cloudy with Light Rain/Snow 37 3 25 -4 60 60 NW 7 11 29.54 1000 4 6 0.00 0.00
5:06 pm 17:06 Cloudy with Rain/Snow 36 2 27 -3 70 70 NW 9 15 29.55 1001 1 2 0.00 0.00
5:16 pm 17:16 Cloudy with Rain/Snow 34 1 28 -2 81 81 Calm 29.55 1001 7 11 0.00 0.00
5:21 pm 17:21 Cloudy with Light Snow Showers 34 1 28 -2 81 81 Calm 29.56 1001 7 11 0.00 0.00
5:36 pm 17:36 Mostly Cloudy with Light Snow Showers 34 1 30 -1 87 87 Calm 29.56 1001 5 8 0.00 0.00
5:46 pm 17:46 Mostly Cloudy with Light Snow Showers 34 1 30 -1 87 87 Calm 29.56 1001 10 16 0.00 0.00
5:53 pm 17:53 Mostly Cloudy with Light Showers 34 1 30 -1 87 87 Calm 29.56 1001 10 16 0.00 0.00
5:56 pm 17:56 Mostly Cloudy 34 1 30 -1 87 87 S 3 6 29.56 1001 10 16 0.00 0.00
5:58 pm 17:58 Mostly Cloudy 33 0.7 30 -1.2 87 87 S 5 7 29.56 1001 10 16 0.02 0.51
6:58 pm 18:58 Sunny 35 1.4 28 -2 78 78 NNW 7 11 29.58 1002 10 16 0.00 0.00
7:58 pm 19:58 Mostly Cloudy 35 1.6 24 -4.2 66 66 WNW 10 17 29.59 1002 10 16 0.00 0.00
8:58 pm 20:58 Mostly Cloudy 36 2.1 22 -5.4 58 58 NNW 9 15 29.61 1003 10 16 0.00 0.00
9:58 pm 21:58 Mostly Cloudy 33 0.7 26 -3.5 74 74 NNW 8 13 29.64 1004 10 16 0.00 0.00
10:58 pm 22:58 Mostly Cloudy 34 1.1 23 -4.8 65 65 SSW 3 6 29.67 1005 10 16 0.00 0.00
11:58 pm 23:58 Mostly Cloudy 34 1.2 22 -5.3 62 62 S 7 11 29.67 1005 10 16 0.00 0.00

Powered by AerisWeather